Time,TemperatureF,DewpointF,PressureIn,WindDirection,WindDirectionDegrees,WindSpeedMPH,WindSpeedGustMPH,Humidity,HourlyPrecipIn,Conditions,Clouds,dailyrainin,SoftwareType,DateUTC
2013-10-07 00:00:00,51.3,48.4,29.88,North,0,0.0,0.0,90,0.00,,,0.00,WUHU216HW,2013-10-07 04:00:00,
2013-10-07 00:01:00,51.3,48.4,29.87,North,0,0.0,0.0,90,0.00,,,0.00,WUHU216HW,2013-10-07 04:01:00,
2013-10-07 00:02:00,51.3,48.4,29.87,North,0,0.0,0.0,90,0.00,,,0.00,WUHU216HW,2013-10-07 04:02:00,
2013-10-07 00:03:00,51.3,48.4,29.87,North,0,0.0,0.0,90,0.00,,,0.00,WUHU216HW,2013-10-07 04:03:00,
2013-10-07 00:08:00,51.3,48.4,29.87,North,0,0.0,0.0,90,0.00,,,0.00,WUHU216HW,2013-10-07 04:08:00,
2013-10-07 00:13:00,51.3,48.4,29.87,North,0,0.0,0.0,90,0.00,,,0.00,WUHU216HW,2013-10-07 04:13:00,
2013-10-07 00:18:00,51.3,48.4,29.87,North,0,0.0,0.0,90,0.00,,,0.00,WUHU216HW,2013-10-07 04:18:00,
2013-10-07 01:00:00,51.5,48.6,29.87,North,0,0.0,0.0,90,0.00,,,0.00,WUHU216HW,2013-10-07 05:00:00,
2013-10-07 01:05:00,51.5,48.6,29.87,North,0,0.0,0.0,90,0.00,,,0.00,WUHU216HW,2013-10-07 05:05:00,
2013-10-07 01:10:00,51.5,48.6,29.87,North,0,0.0,0.0,90,0.00,,,0.00,WUHU216HW,2013-10-07 05:10:00,
2013-10-07 02:00:00,51.8,49.5,29.85,North,0,0.0,0.0,92,0.00,,,0.00,WUHU216HW,2013-10-07 06:00:00,
2013-10-07 02:05:00,51.8,49.2,29.84,North,0,0.0,0.0,91,0.00,,,0.00,WUHU216HW,2013-10-07 06:05:00,
2013-10-07 02:10:00,51.7,49.1,29.84,North,0,0.0,0.0,91,0.00,,,0.00,WUHU216HW,2013-10-07 06:10:00,
2013-10-07 02:15:00,51.7,49.1,29.84,North,0,0.0,0.0,91,0.00,,,0.00,WUHU216HW,2013-10-07 06:15:00,
2013-10-07 02:20:00,51.7,49.1,29.84,North,0,0.0,0.0,91,0.00,,,0.00,WUHU216HW,2013-10-07 06:20:00,
2013-10-07 03:00:00,51.8,49.5,29.82,North,0,0.0,0.0,92,0.00,,,0.00,WUHU216HW,2013-10-07 07:00:00,
2013-10-07 03:05:00,52.0,49.7,29.82,North,0,0.0,0.0,92,0.00,,,0.00,WUHU216HW,2013-10-07 07:05:00,
2013-10-07 03:10:00,52.0,49.7,29.82,North,0,0.0,0.0,92,0.00,,,0.00,WUHU216HW,2013-10-07 07:10:00,
2013-10-07 03:15:00,52.0,49.7,29.82,North,0,0.0,0.0,92,0.00,,,0.00,WUHU216HW,2013-10-07 07:15:00,
2013-10-07 04:00:00,52.0,49.7,29.81,North,0,0.0,0.0,92,0.00,,,0.00,WUHU216HW,2013-10-07 08:00:00,
2013-10-07 04:05:00,52.0,49.7,29.80,North,0,0.0,0.0,92,0.00,,,0.00,WUHU216HW,2013-10-07 08:05:00,
2013-10-07 04:10:00,52.0,49.7,29.80,North,0,0.0,0.0,92,0.00,,,0.00,WUHU216HW,2013-10-07 08:10:00,
2013-10-07 05:00:00,52.2,49.9,29.80,North,0,0.0,0.0,92,0.00,,,0.00,WUHU216HW,2013-10-07 09:00:00,
2013-10-07 05:05:00,52.2,49.9,29.80,North,0,0.0,0.0,92,0.00,,,0.00,WUHU216HW,2013-10-07 09:05:00,
2013-10-07 06:00:00,52.4,50.0,29.79,North,0,0.0,0.0,92,0.00,,,0.00,WUHU216HW,2013-10-07 10:00:00,
2013-10-07 06:05:00,52.6,50.2,29.78,North,0,0.0,0.0,92,0.00,,,0.00,WUHU216HW,2013-10-07 10:05:00,
2013-10-07 06:10:00,52.6,50.2,29.78,North,0,0.0,0.0,92,0.00,,,0.00,WUHU216HW,2013-10-07 10:10:00,
2013-10-07 06:15:00,52.6,50.2,29.78,North,0,0.0,0.0,92,0.00,,,0.00,WUHU216HW,2013-10-07 10:15:00,
2013-10-07 07:00:00,52.9,50.6,29.77,North,0,0.0,0.0,92,0.00,,,0.00,WUHU216HW,2013-10-07 11:00:00,
2013-10-07 07:05:00,52.9,50.6,29.76,North,0,0.0,0.0,92,0.00,,,0.00,WUHU216HW,2013-10-07 11:05:00,
2013-10-07 07:10:00,52.9,50.6,29.76,North,0,0.0,0.0,92,0.00,,,0.00,WUHU216HW,2013-10-07 11:10:00,
2013-10-07 08:00:00,53.3,50.9,29.75,North,0,0.0,0.0,92,0.00,,,0.00,WUHU216HW,2013-10-07 12:00:00,
2013-10-07 08:05:00,53.5,51.1,29.75,North,0,0.0,0.0,92,0.00,,,0.00,WUHU216HW,2013-10-07 12:05:00,
2013-10-07 08:10:00,53.5,51.1,29.75,North,0,0.0,0.0,92,0.00,,,0.00,WUHU216HW,2013-10-07 12:10:00,
2013-10-07 09:00:00,54.5,52.2,29.75,North,0,0.0,0.0,92,0.00,,,0.00,WUHU216HW,2013-10-07 13:00:00,
2013-10-07 09:05:00,54.5,52.2,29.74,North,0,0.0,0.0,92,0.00,,,0.00,WUHU216HW,2013-10-07 13:05:00,
2013-10-07 09:10:00,54.5,52.2,29.74,North,0,0.0,0.0,92,0.00,,,0.00,WUHU216HW,2013-10-07 13:10:00,
2013-10-07 10:00:00,56.2,53.8,29.71,North,0,0.0,0.0,92,0.00,,,0.00,WUHU216HW,2013-10-07 14:00:00,
2013-10-07 10:05:00,56.3,54.0,29.71,North,0,0.0,0.0,92,0.00,,,0.00,WUHU216HW,2013-10-07 14:05:00,
2013-10-07 10:10:00,56.3,54.0,29.71,North,0,0.0,0.0,92,0.00,,,0.00,WUHU216HW,2013-10-07 14:10:00,
2013-10-07 11:00:00,60.1,58.2,29.69,North,0,0.0,0.0,93,0.00,,,0.00,WUHU216HW,2013-10-07 15:00:00,
2013-10-07 11:05:00,60.5,58.5,29.69,North,0,0.0,0.0,93,0.00,,,0.00,WUHU216HW,2013-10-07 15:05:00,
2013-10-07 11:10:00,60.5,58.5,29.69,North,0,0.0,0.0,93,0.00,,,0.00,WUHU216HW,2013-10-07 15:10:00,
2013-10-07 12:00:00,64.4,62.5,29.65,North,0,0.0,0.0,93,0.00,,,0.00,WUHU216HW,2013-10-07 16:00:00,
2013-10-07 12:05:00,64.4,62.5,29.64,North,0,0.0,0.0,93,0.00,,,0.00,WUHU216HW,2013-10-07 16:05:00,
2013-10-07 12:10:00,64.4,62.5,29.64,North,0,0.0,0.0,93,0.00,,,0.00,WUHU216HW,2013-10-07 16:10:00,
2013-10-07 12:15:00,64.4,62.5,29.64,North,0,0.0,0.0,93,0.00,,,0.00,WUHU216HW,2013-10-07 16:15:00,
2013-10-07 13:00:00,69.1,65.7,29.60,North,0,0.0,0.0,89,0.00,,,0.00,WUHU216HW,2013-10-07 17:00:00,
2013-10-07 13:05:00,69.1,65.1,29.59,North,0,0.0,0.0,87,0.00,,,0.00,WUHU216HW,2013-10-07 17:05:00,
2013-10-07 13:10:00,69.7,65.6,29.59,North,0,0.0,0.0,87,0.00,,,0.00,WUHU216HW,2013-10-07 17:10:00,
2013-10-07 13:15:00,69.7,65.6,29.59,North,0,0.0,0.0,87,0.00,,,0.00,WUHU216HW,2013-10-07 17:15:00,
2013-10-07 14:00:00,69.7,62.1,29.55,North,0,0.0,0.0,77,0.00,,,0.00,WUHU216HW,2013-10-07 18:00:00,
2013-10-07 14:05:00,69.3,62.1,29.55,North,0,0.0,0.0,78,0.00,,,0.00,WUHU216HW,2013-10-07 18:05:00,
2013-10-07 14:10:00,69.3,62.1,29.55,North,0,0.0,0.0,78,0.00,,,0.00,WUHU216HW,2013-10-07 18:10:00,
2013-10-07 15:00:00,71.6,63.3,29.52,North,0,0.0,0.0,75,0.00,,,0.00,WUHU216HW,2013-10-07 19:00:00,
2013-10-07 15:05:00,71.6,63.3,29.52,North,0,0.0,0.0,75,0.00,,,0.00,WUHU216HW,2013-10-07 19:05:00,
2013-10-07 15:10:00,71.6,63.3,29.52,North,0,0.0,0.0,75,0.00,,,0.00,WUHU216HW,2013-10-07 19:10:00,
2013-10-07 16:00:00,69.8,61.8,29.50,North,0,0.0,0.0,76,0.00,,,0.00,WUHU216HW,2013-10-07 20:00:00,
2013-10-07 16:05:00,69.8,61.8,29.50,North,0,0.0,0.0,76,0.00,,,0.00,WUHU216HW,2013-10-07 20:05:00,
2013-10-07 16:10:00,69.5,61.6,29.50,North,0,0.0,0.0,76,0.00,,,0.00,WUHU216HW,2013-10-07 20:10:00,
2013-10-07 16:15:00,69.5,61.6,29.50,North,0,0.0,0.0,76,0.00,,,0.00,WUHU216HW,2013-10-07 20:15:00,
2013-10-07 16:20:00,69.5,61.6,29.50,North,0,0.0,0.0,76,0.00,,,0.00,WUHU216HW,2013-10-07 20:20:00,
2013-10-07 17:00:00,67.0,61.3,29.48,North,0,0.0,0.0,82,0.00,,,0.00,WUHU216HW,2013-10-07 21:00:00,
2013-10-07 17:04:00,66.1,59.8,29.55,North,0,0.0,0.0,80,0.00,,,0.00,WUHU216HW,2013-10-07 21:04:00,
2013-10-07 17:06:00,64.4,58.1,29.54,North,0,0.0,0.0,80,0.00,,,0.00,WUHU216HW,2013-10-07 21:06:00,
2013-10-07 18:00:00,62.3,59.4,29.54,North,0,0.0,0.0,90,0.00,,,0.00,WUHU216HW,2013-10-07 22:00:00,
2013-10-07 18:04:00,62.3,59.4,29.53,North,0,0.0,0.0,90,0.00,,,0.00,WUHU216HW,2013-10-07 22:04:00,